{"data":{"norad_id":68633,"epoch":"2026-05-24T17:17:23.891424Z","epoch_age_seconds":92966,"freshness":"FRESH","line1":"1 68633U 26074G   26144.72041541  .00008248  00000+0  32995-3 0  9998","line2":"2 68633  60.0220 267.9022 0025103  15.4028 344.7812 15.25628917  7201","mean_motion":15.25628917,"eccentricity":0.0025103,"inclination_deg":60.022,"raan_deg":267.9022,"arg_perigee_deg":15.4028,"mean_anomaly_deg":344.7812,"bstar":0.00032995,"rev_number":720,"period_min":94.387303750877,"perigee_km":471.65924891736,"apogee_km":506.13588265836,"semimajor_km":6867.0345657879,"source":"CELESTRAK","updated_at":"2026-05-25T13:38:07.988582Z"}}